Location: Ch�ze
(42.9000°N, 0.0333°W)
Time: 00:11:09
(UTC+00:00)

Cosmos 1818 - Pass Details

Date: 24 January 2021
Orbit: 773 x 800 km, 65.0° (Epoch: 24 February)

Event Time Altitude Azimuth Distance (km) Brightness Sun altitude
Rises 17:58:48 0° 224° (SW) 3,265 7.9 -10.4°
Reaches altitude 10° 18:01:15 10° 228° (SW) 2,344 7.1 -10.9°
Maximum altitude 18:06:34 58° 308° (NW) 920 4.1 -11.8°
Drops below altitude 10° 18:11:57 10° 27° (NNE) 2,374 5.7 -12.7°
Enters shadow 18:12:50 - 29° (NNE) 2,706 5.9 -12.9°
